Flag for Denmark Weather past 2 weeks in Aarhus, Denmark

Now
57 °F

Cool.


Feels Like: 57 °F
Forecast: 63 / 83 °F
Wind: 3 mph from West

Location: Tirstrup

Current Time: Jul 24, 2014 at 6:13:59 AM

Latest Report: Jul 24, 2014 at 5:50 AM


Visibility: N/A

Pressure: 30.18 "Hg

Humidity: 88%

Dew point: 54 °F

Location of AarhusLocation

Historic Weather in Aarhus — Graph

°F

Aarhus temperature yesterday

Maximum temperature yesterday: 81 °F (at 1:20 PM)
Minimum temperature yesterday: 61 °F (at 2:50 AM)
Average temperature yesterday: 71 °F

Past Weeks' High & Low Weather Summary

 TemperatureHumidityPressure
High86 °F (Jul 9, 4:50 PM)94% (Jul 13, 8:20 AM)30.27 "Hg (Jul 13, 8:20 AM)
Low48 °F (Jul 17, 5:20 AM)26% (Jul 23, 1:20 PM)29.50 "Hg (Jul 13, 9:20 PM)
Average68 °F65%30.01 "Hg
* Reported Jul 9 4:50 AM — Jul 24 4:50 AM, Aarhus, Weather by CustomWeather, © 2014

Note: Actual official high and low records may vary slightly from our data, if they occured in-between our weather recording intervals... More about our weather records

Advertising

Aarhus weather history for previous 24 hours

 ConditionsComfort  
Time TempWeatherWind HumidityBarometerVisibility
4:50 AM
Jul 24
57 °FFog.1 mph82%30.18 "Hg2 mi
4:20 AM59 °FCool.1 mph82%30.18 "Hg3 mi
3:50 AM57 °FCool.2 mph88%30.18 "HgN/A
3:20 AM59 °FCool.1 mph82%30.18 "HgN/A
2:50 AM59 °FCool.1 mph82%30.18 "HgN/A
2:20 AM61 °FCool.1 mph72%30.21 "HgN/A
1:50 AM61 °FCool.1 mph72%30.21 "HgN/A
1:20 AM61 °FCool.2 mph72%30.21 "HgN/A
12:50 AM61 °FCool.1 mph72%30.21 "HgN/A
12:20 AM63 °FMild.2 mph73%30.21 "HgN/A
11:50 PM
Jul 23
63 °FMild.2 mph73%30.21 "HgN/A
11:20 PM64 °FMild.2 mph64%30.21 "HgN/A
10:50 PM66 °FMild.2 mph60%30.21 "HgN/A
10:20 PM70 °FMild.2 mph57%30.21 "HgN/A
9:50 PM72 °FMild.5 mph53%30.21 "HgN/A
9:20 PM73 °FMild.5 mph47%30.21 "HgN/A
8:50 PM77 °FWarm.5 mph42%30.21 "HgN/A
8:20 PM79 °FPleasantly warm.6 mph37%30.21 "HgN/A
7:50 PM79 °FPleasantly warm.8 mph34%30.21 "HgN/A
7:20 PM81 °FPleasantly warm.9 mph30%30.21 "HgN/A
6:50 PM81 °FPleasantly warm.10 mph28%30.21 "HgN/A
6:20 PM81 °FPleasantly warm.9 mph28%30.21 "HgN/A
5:50 PM81 °FPleasantly warm.10 mph26%30.21 "HgN/A
5:20 PM81 °FPleasantly warm.12 mph26%30.21 "HgN/A
4:50 PM81 °FPleasantly warm.12 mph28%30.24 "HgN/A
4:20 PM81 °FPleasantly warm.13 mph28%30.24 "HgN/A
3:50 PM81 °FPleasantly warm.13 mph30%30.24 "HgN/A
3:20 PM81 °FPleasantly warm.14 mph30%30.24 "HgN/A
1:20 PM81 °FPleasantly warm.9 mph26%30.27 "HgN/A
12:20 PM79 °FPleasantly warm.9 mph32%30.27 "HgN/A
11:20 AM79 °FPleasantly warm.9 mph34%30.27 "HgN/A
7:50 AM70 °FMild.5 mph78%30.27 "HgN/A
7:20 AM66 °FMild.1 mph83%30.27 "HgN/A
6:50 AM64 °FMild.2 mph83%30.27 "HgN/A
6:20 AM63 °FMild.No wind83%30.27 "HgN/A
Weather by CustomWeather, © 2014

See weather overviewHow to use our weather pages